Wetterdaten: Samstag, 10.10.2015
Datum Zeit Temperatur Luftfeuchte Luftdruck Regen Wind Richtung Richtung Sonnenschein ET UV Solar Taupunkt Windchill Windben
10.10.2015 00:00 12,3 C 79 % 1020,0 hPa 0,0 l/m 0,0 km/h (0 Bft) NO 46 0 min 0,000 mm 0,0 UV-I 0 W/m 8,8 C 12,3 C 0,0 km/h (0 Bft)
10.10.2015 00:05 12,3 C 79 % 1020,0 hPa 0,0 l/m 0,4 km/h (0 Bft) O 79 0 min 0,000 mm 0,0 UV-I 0 W/m 8,8 C 12,3 C 4,8 km/h (1 Bft)
10.10.2015 00:10 12,3 C 79 % 1020,0 hPa 0,0 l/m 0,0 km/h (0 Bft) O 79 0 min 0,000 mm 0,0 UV-I 0 W/m 8,8 C 12,3 C 0,0 km/h (0 Bft)
10.10.2015 00:15 12,3 C 79 % 1020,0 hPa 0,0 l/m 0,0 km/h (0 Bft) O 79 0 min 0,000 mm 0,0 UV-I 0 W/m 8,8 C 12,3 C 0,0 km/h (0 Bft)
10.10.2015 00:20 12,3 C 79 % 1020,0 hPa 0,0 l/m 0,0 km/h (0 Bft) O 79 0 min 0,000 mm 0,0 UV-I 0 W/m 8,8 C 12,3 C 0,0 km/h (0 Bft)
10.10.2015 00:25 12,3 C 79 % 1020,0 hPa 0,0 l/m 0,0 km/h (0 Bft) NO 47 0 min 0,000 mm 0,0 UV-I 0 W/m 8,8 C 12,3 C 0,0 km/h (0 Bft)
10.10.2015 00:30 12,3 C 79 % 1019,9 hPa 0,0 l/m 0,0 km/h (0 Bft) NO 47 0 min 0,000 mm 0,0 UV-I 0 W/m 8,8 C 12,3 C 0,0 km/h (0 Bft)
10.10.2015 00:35 12,3 C 79 % 1020,0 hPa 0,0 l/m 0,2 km/h (0 Bft) O-NO 58 0 min 0,000 mm 0,0 UV-I 0 W/m 8,8 C 12,3 C 6,4 km/h (2 Bft)
10.10.2015 00:40 12,3 C 79 % 1019,9 hPa 0,0 l/m 0,0 km/h (0 Bft) NO 50 0 min 0,000 mm 0,0 UV-I 0 W/m 8,8 C 12,3 C 0,0 km/h (0 Bft)
10.10.2015 00:45 12,3 C 79 % 1019,9 hPa 0,0 l/m 0,0 km/h (0 Bft) NO 50 0 min 0,000 mm 0,0 UV-I 0 W/m 8,8 C 12,3 C 0,0 km/h (0 Bft)
10.10.2015 00:50 12,3 C 79 % 1019,8 hPa 0,0 l/m 0,0 km/h (0 Bft) NO 50 0 min 0,000 mm 0,0 UV-I 0 W/m 8,8 C 12,3 C 0,0 km/h (0 Bft)
10.10.2015 00:55 12,3 C 79 % 1019,9 hPa 0,0 l/m 0,0 km/h (0 Bft) NO 37 0 min 0,000 mm 0,0 UV-I 0 W/m 8,8 C 12,3 C 1,6 km/h (1 Bft)
10.10.2015 01:00 12,3 C 79 % 1019,9 hPa 0,0 l/m 0,0 km/h (0 Bft) O-NO 60 0 min 0,000 mm 0,0 UV-I 0 W/m 8,8 C 12,3 C 0,0 km/h (0 Bft)
10.10.2015 01:05 12,3 C 79 % 1019,8 hPa 0,0 l/m 0,2 km/h (0 Bft) O-NO 60 0 min 0,025 mm 0,0 UV-I 0 W/m 8,8 C 12,3 C 3,2 km/h (1 Bft)
10.10.2015 01:10 12,3 C 79 % 1019,8 hPa 0,0 l/m 0,0 km/h (0 Bft) NO 50 0 min 0,000 mm 0,0 UV-I 0 W/m 8,8 C 12,3 C 3,2 km/h (1 Bft)
10.10.2015 01:15 12,3 C 79 % 1019,8 hPa 0,0 l/m 0,0 km/h (0 Bft) NO 51 0 min 0,000 mm 0,0 UV-I 0 W/m 8,8 C 12,3 C 0,0 km/h (0 Bft)
10.10.2015 01:20 12,3 C 79 % 1019,8 hPa 0,0 l/m 0,0 km/h (0 Bft) NO 51 0 min 0,000 mm 0,0 UV-I 0 W/m 8,8 C 12,3 C 0,0 km/h (0 Bft)
10.10.2015 01:25 12,2 C 79 % 1019,7 hPa 0,0 l/m 1,1 km/h (1 Bft) O-NO 61 0 min 0,000 mm 0,0 UV-I 0 W/m 8,7 C 12,2 C 8,0 km/h (2 Bft)
10.10.2015 01:30 12,2 C 79 % 1019,8 hPa 0,0 l/m 0,0 km/h (0 Bft) O-NO 73 0 min 0,000 mm 0,0 UV-I 0 W/m 8,7 C 12,2 C 1,6 km/h (1 Bft)
10.10.2015 01:35 12,2 C 79 % 1019,7 hPa 0,0 l/m 0,0 km/h (0 Bft) NO 53 0 min 0,000 mm 0,0 UV-I 0 W/m 8,7 C 12,2 C 1,6 km/h (1 Bft)
10.10.2015 01:40 12,2 C 79 % 1019,7 hPa 0,0 l/m 0,0 km/h (0 Bft) O-NO 61 0 min 0,000 mm 0,0 UV-I 0 W/m 8,7 C 12,2 C 1,6 km/h (1 Bft)
10.10.2015 01:45 12,2 C 79 % 1019,7 hPa 0,0 l/m 0,0 km/h (0 Bft) O-NO 57 0 min 0,000 mm 0,0 UV-I 0 W/m 8,7 C 12,2 C 0,0 km/h (0 Bft)
10.10.2015 01:50 12,3 C 79 % 1019,7 hPa 0,0 l/m 0,0 km/h (0 Bft) N 360 0 min 0,000 mm 0,0 UV-I 0 W/m 8,8 C 12,3 C 1,6 km/h (1 Bft)
10.10.2015 01:55 12,2 C 79 % 1019,7 hPa 0,0 l/m 0,6 km/h (0 Bft) NO 42 0 min 0,000 mm 0,0 UV-I 0 W/m 8,7 C 12,2 C 8,0 km/h (2 Bft)
10.10.2015 02:00 12,2 C 79 % 1019,7 hPa 0,0 l/m 0,2 km/h (0 Bft) NO 55 0 min 0,000 mm 0,0 UV-I 0 W/m 8,7 C 12,2 C 6,4 km/h (2 Bft)
10.10.2015 02:05 12,2 C 79 % 1019,7 hPa 0,0 l/m 0,0 km/h (0 Bft) O-NO 63 0 min 0,026 mm 0,0 UV-I 0 W/m 8,7 C 12,2 C 0,0 km/h (0 Bft)
10.10.2015 02:10 12,2 C 79 % 1019,7 hPa 0,0 l/m 0,3 km/h (0 Bft) NO 52 0 min 0,000 mm 0,0 UV-I 0 W/m 8,7 C 12,2 C 4,8 km/h (1 Bft)
10.10.2015 02:15 12,2 C 79 % 1019,7 hPa 0,0 l/m 0,3 km/h (0 Bft) NO 55 0 min 0,000 mm 0,0 UV-I 0 W/m 8,7 C 12,2 C 4,8 km/h (1 Bft)
10.10.2015 02:20 12,2 C 79 % 1019,7 hPa 0,0 l/m 0,2 km/h (0 Bft) NO 48 0 min 0,000 mm 0,0 UV-I 0 W/m 8,7 C 12,2 C 9,7 km/h (2 Bft)
10.10.2015 02:25 12,2 C 79 % 1019,7 hPa 0,0 l/m 0,6 km/h (0 Bft) NO 36 0 min 0,000 mm 0,0 UV-I 0 W/m 8,7 C 12,2 C 11,3 km/h (2 Bft)
10.10.2015 02:30 12,2 C 79 % 1019,8 hPa 0,0 l/m 0,0 km/h (0 Bft) NO 44 0 min 0,000 mm 0,0 UV-I 0 W/m 8,7 C 12,2 C 0,0 km/h (0 Bft)
10.10.2015 02:35 12,2 C 79 % 1019,8 hPa 0,0 l/m 0,0 km/h (0 Bft) NO 54 0 min 0,000 mm 0,0 UV-I 0 W/m 8,7 C 12,2 C 1,6 km/h (1 Bft)
10.10.2015 02:40 12,2 C 79 % 1019,8 hPa 0,0 l/m 0,2 km/h (0 Bft) O-NO 74 0 min 0,000 mm 0,0 UV-I 0 W/m 8,7 C 12,2 C 3,2 km/h (1 Bft)
10.10.2015 02:45 12,2 C 79 % 1019,8 hPa 0,0 l/m 0,3 km/h (0 Bft) NO 40 0 min 0,000 mm 0,0 UV-I 0 W/m 8,7 C 12,2 C 4,8 km/h (1 Bft)
10.10.2015 02:50 12,2 C 78 % 1019,8 hPa 0,0 l/m 0,1 km/h (0 Bft) O-NO 63 0 min 0,000 mm 0,0 UV-I 0 W/m 8,5 C 12,2 C 1,6 km/h (1 Bft)
10.10.2015 02:55 12,2 C 78 % 1019,8 hPa 0,0 l/m 0,1 km/h (0 Bft) O-NO 66 0 min 0,000 mm 0,0 UV-I 0 W/m 8,5 C 12,2 C 1,6 km/h (1 Bft)
10.10.2015 03:00 12,2 C 78 % 1019,8 hPa 0,0 l/m 0,0 km/h (0 Bft) NO 49 0 min 0,000 mm 0,0 UV-I 0 W/m 8,5 C 12,2 C 0,0 km/h (0 Bft)
10.10.2015 03:05 12,2 C 78 % 1019,8 hPa 0,0 l/m 0,0 km/h (0 Bft) O-NO 63 0 min 0,025 mm 0,0 UV-I 0 W/m 8,5 C 12,2 C 1,6 km/h (1 Bft)
10.10.2015 03:10 12,2 C 78 % 1019,8 hPa 0,0 l/m 0,0 km/h (0 Bft) NO 40 0 min 0,000 mm 0,0 UV-I 0 W/m 8,5 C 12,2 C 1,6 km/h (1 Bft)
10.10.2015 03:15 12,2 C 78 % 1019,8 hPa 0,0 l/m 0,5 km/h (0 Bft) O-NO 62 0 min 0,000 mm 0,0 UV-I 0 W/m 8,5 C 12,2 C 4,8 km/h (1 Bft)
10.10.2015 03:20 12,2 C 78 % 1019,8 hPa 0,0 l/m 0,2 km/h (0 Bft) N-NO 24 0 min 0,000 mm 0,0 UV-I 0 W/m 8,5 C 12,2 C 4,8 km/h (1 Bft)
10.10.2015 03:25 12,2 C 78 % 1019,7 hPa 0,0 l/m 0,0 km/h (0 Bft) O-NO 58 0 min 0,000 mm 0,0 UV-I 0 W/m 8,5 C 12,2 C 0,0 km/h (0 Bft)
10.10.2015 03:30 12,1 C 78 % 1019,7 hPa 0,0 l/m 0,6 km/h (0 Bft) O-NO 74 0 min 0,000 mm 0,0 UV-I 0 W/m 8,4 C 12,1 C 8,0 km/h (2 Bft)
10.10.2015 03:35 12,1 C 78 % 1019,7 hPa 0,0 l/m 0,0 km/h (0 Bft) O-NO 70 0 min 0,000 mm 0,0 UV-I 0 W/m 8,4 C 12,1 C 1,6 km/h (1 Bft)
10.10.2015 03:40 12,1 C 78 % 1019,8 hPa 0,0 l/m 0,0 km/h (0 Bft) NO 41 0 min 0,000 mm 0,0 UV-I 0 W/m 8,4 C 12,1 C 1,6 km/h (1 Bft)
10.10.2015 03:45 12,1 C 78 % 1019,8 hPa 0,0 l/m 0,1 km/h (0 Bft) O-NO 75 0 min 0,000 mm 0,0 UV-I 0 W/m 8,4 C 12,1 C 1,6 km/h (1 Bft)
10.10.2015 03:50 12,0 C 78 % 1019,8 hPa 0,0 l/m 0,0 km/h (0 Bft) O-NO 75 0 min 0,000 mm 0,0 UV-I 0 W/m 8,3 C 12,0 C 0,0 km/h (0 Bft)
10.10.2015 03:55 12,0 C 78 % 1019,8 hPa 0,0 l/m 0,0 km/h (0 Bft) O-NO 71 0 min 0,000 mm 0,0 UV-I 0 W/m 8,3 C 12,0 C 0,0 km/h (0 Bft)
10.10.2015 04:00 12,0 C 78 % 1019,8 hPa 0,0 l/m 0,0 km/h (0 Bft) O-NO 71 0 min 0,000 mm 0,0 UV-I 0 W/m 8,3 C 12,0 C 0,0 km/h (0 Bft)
10.10.2015 04:05 12,0 C 78 % 1019,8 hPa 0,0 l/m 0,0 km/h (0 Bft) O-NO 71 0 min 0,000 mm 0,0 UV-I 0 W/m 8,3 C 12,0 C 0,0 km/h (0 Bft)
10.10.2015 04:10 11,9 C 78 % 1019,7 hPa 0,0 l/m 0,0 km/h (0 Bft) O-NO 71 0 min 0,000 mm 0,0 UV-I 0 W/m 8,2 C 11,9 C 1,6 km/h (1 Bft)
10.10.2015 04:15 11,8 C 78 % 1019,7 hPa 0,0 l/m 0,0 km/h (0 Bft) O-NO 71 0 min 0,000 mm 0,0 UV-I 0 W/m 8,1 C 11,8 C 0,0 km/h (0 Bft)
10.10.2015 04:20 11,8 C 78 % 1019,7 hPa 0,0 l/m 0,0 km/h (0 Bft) O-NO 71 0 min 0,000 mm 0,0 UV-I 0 W/m 8,1 C 11,8 C 1,6 km/h (1 Bft)
10.10.2015 04:25 11,7 C 78 % 1019,7 hPa 0,0 l/m 0,3 km/h (0 Bft) O-NO 74 0 min 0,000 mm 0,0 UV-I 0 W/m 8,0 C 11,7 C 4,8 km/h (1 Bft)
10.10.2015 04:30 11,7 C 78 % 1019,7 hPa 0,0 l/m 0,0 km/h (0 Bft) O-NO 74 0 min 0,000 mm 0,0 UV-I 0 W/m 8,0 C 11,7 C 0,0 km/h (0 Bft)
10.10.2015 04:35 11,7 C 78 % 1019,7 hPa 0,0 l/m 0,0 km/h (0 Bft) O-NO 74 0 min 0,000 mm 0,0 UV-I 0 W/m 8,0 C 11,7 C 0,0 km/h (0 Bft)
10.10.2015 04:40 11,7 C 78 % 1019,7 hPa 0,0 l/m 0,0 km/h (0 Bft) O-NO 74 0 min 0,000 mm 0,0 UV-I 0 W/m 8,0 C 11,7 C 0,0 km/h (0 Bft)
10.10.2015 04:45 11,6 C 78 % 1019,7 hPa 0,0 l/m 0,0 km/h (0 Bft) O-NO 74 0 min 0,000 mm 0,0 UV-I 0 W/m 7,9 C 11,6 C 0,0 km/h (0 Bft)
10.10.2015 04:50 11,6 C 78 % 1019,7 hPa 0,0 l/m 0,2 km/h (0 Bft) O-NO 63 0 min 0,000 mm 0,0 UV-I 0 W/m 7,9 C 11,6 C 6,4 km/h (2 Bft)
10.10.2015 04:55 11,6 C 78 % 1019,6 hPa 0,0 l/m 0,0 km/h (0 Bft) O-NO 63 0 min 0,000 mm 0,0 UV-I 0 W/m 7,9 C 11,6 C 0,0 km/h (0 Bft)
10.10.2015 05:00 11,6 C 78 % 1019,6 hPa 0,0 l/m 0,0 km/h (0 Bft) O-NO 63 0 min 0,026 mm 0,0 UV-I 0 W/m 7,9 C 11,6 C 1,6 km/h (1 Bft)
10.10.2015 05:05 11,5 C 78 % 1019,6 hPa 0,0 l/m 0,0 km/h (0 Bft) O-NO 63 0 min 0,000 mm 0,0 UV-I 0 W/m 7,8 C 11,5 C 0,0 km/h (0 Bft)
10.10.2015 05:10 11,5 C 78 % 1019,5 hPa 0,0 l/m 0,0 km/h (0 Bft) O-NO 63 0 min 0,000 mm 0,0 UV-I 0 W/m 7,8 C 11,5 C 0,0 km/h (0 Bft)
10.10.2015 05:15 11,4 C 78 % 1019,5 hPa 0,0 l/m 0,3 km/h (0 Bft) NO 55 0 min 0,000 mm 0,0 UV-I 0 W/m 7,7 C 11,4 C 4,8 km/h (1 Bft)
10.10.2015 05:20 11,4 C 78 % 1019,5 hPa 0,0 l/m 0,0 km/h (0 Bft) NO 51 0 min 0,000 mm 0,0 UV-I 0 W/m 7,7 C 11,4 C 0,0 km/h (0 Bft)
10.10.2015 05:25 11,4 C 78 % 1019,5 hPa 0,0 l/m 0,0 km/h (0 Bft) O-NO 62 0 min 0,000 mm 0,0 UV-I 0 W/m 7,7 C 11,4 C 1,6 km/h (1 Bft)
10.10.2015 05:30 11,4 C 78 % 1019,5 hPa 0,0 l/m 0,1 km/h (0 Bft) NO 56 0 min 0,000 mm 0,0 UV-I 0 W/m 7,7 C 11,4 C 3,2 km/h (1 Bft)
10.10.2015 05:35 11,3 C 78 % 1019,5 hPa 0,0 l/m 0,4 km/h (0 Bft) O-NO 64 0 min 0,000 mm 0,0 UV-I 0 W/m 7,6 C 11,3 C 4,8 km/h (1 Bft)
10.10.2015 05:40 11,3 C 78 % 1019,6 hPa 0,0 l/m 0,0 km/h (0 Bft) NO 46 0 min 0,000 mm 0,0 UV-I 0 W/m 7,6 C 11,3 C 1,6 km/h (1 Bft)
10.10.2015 05:45 11,3 C 78 % 1019,6 hPa 0,0 l/m 0,2 km/h (0 Bft) NO 56 0 min 0,000 mm 0,0 UV-I 0 W/m 7,6 C 11,3 C 4,8 km/h (1 Bft)
10.10.2015 05:50 11,2 C 78 % 1019,6 hPa 0,0 l/m 2,2 km/h (1 Bft) O-NO 62 0 min 0,000 mm 0,0 UV-I 0 W/m 7,5 C 11,2 C 8,0 km/h (2 Bft)
10.10.2015 05:55 11,2 C 78 % 1019,6 hPa 0,0 l/m 0,9 km/h (0 Bft) O 92 0 min 0,000 mm 0,0 UV-I 0 W/m 7,5 C 11,2 C 4,8 km/h (1 Bft)
10.10.2015 06:00 11,2 C 78 % 1019,6 hPa 0,0 l/m 0,3 km/h (0 Bft) NO 50 0 min 0,025 mm 0,0 UV-I 0 W/m 7,5 C 11,2 C 4,8 km/h (1 Bft)
10.10.2015 06:05 11,2 C 78 % 1019,6 hPa 0,0 l/m 0,3 km/h (0 Bft) NO 52 0 min 0,000 mm 0,0 UV-I 0 W/m 7,5 C 11,2 C 3,2 km/h (1 Bft)
10.10.2015 06:10 11,2 C 78 % 1019,6 hPa 0,0 l/m 1,9 km/h (1 Bft) O-NO 63 0 min 0,000 mm 0,0 UV-I 0 W/m 7,5 C 11,2 C 6,4 km/h (2 Bft)
10.10.2015 06:15 11,2 C 78 % 1019,5 hPa 0,0 l/m 1,3 km/h (1 Bft) O-NO 76 0 min 0,000 mm 0,0 UV-I 0 W/m 7,5 C 11,2 C 6,4 km/h (2 Bft)
10.10.2015 06:20 11,1 C 78 % 1019,5 hPa 0,0 l/m 0,6 km/h (0 Bft) O-NO 62 0 min 0,000 mm 0,0 UV-I 0 W/m 7,4 C 11,1 C 3,2 km/h (1 Bft)
10.10.2015 06:25 11,1 C 78 % 1019,5 hPa 0,0 l/m 0,2 km/h (0 Bft) NO 53 0 min 0,000 mm 0,0 UV-I 0 W/m 7,4 C 11,1 C 3,2 km/h (1 Bft)
10.10.2015 06:30 11,1 C 78 % 1019,4 hPa 0,0 l/m 0,0 km/h (0 Bft) NO 53 0 min 0,000 mm 0,0 UV-I 0 W/m 7,4 C 11,1 C 0,0 km/h (0 Bft)
10.10.2015 06:35 11,1 C 78 % 1019,4 hPa 0,0 l/m 0,0 km/h (0 Bft) NO 54 0 min 0,000 mm 0,0 UV-I 0 W/m 7,4 C 11,1 C 0,0 km/h (0 Bft)
10.10.2015 06:40 11,1 C 78 % 1019,4 hPa 0,0 l/m 0,3 km/h (0 Bft) O-SO 107 0 min 0,000 mm 0,0 UV-I 0 W/m 7,4 C 11,1 C 6,4 km/h (2 Bft)
10.10.2015 06:45 11,1 C 78 % 1019,4 hPa 0,0 l/m 0,0 km/h (0 Bft) O 92 0 min 0,000 mm 0,0 UV-I 0 W/m 7,4 C 11,1 C 0,0 km/h (0 Bft)
10.10.2015 06:50 11,0 C 78 % 1019,4 hPa 0,0 l/m 0,9 km/h (0 Bft) O-NO 64 0 min 0,000 mm 0,0 UV-I 0 W/m 7,3 C 11,0 C 8,0 km/h (2 Bft)
10.10.2015 06:55 11,0 C 78 % 1019,3 hPa 0,0 l/m 0,0 km/h (0 Bft) O-NO 70 0 min 0,000 mm 0,0 UV-I 0 W/m 7,3 C 11,0 C 0,0 km/h (0 Bft)
10.10.2015 07:00 11,0 C 78 % 1019,3 hPa 0,0 l/m 0,0 km/h (0 Bft) NO 40 0 min 0,025 mm 0,0 UV-I 0 W/m 7,3 C 11,0 C 1,6 km/h (1 Bft)
10.10.2015 07:05 11,0 C 78 % 1019,4 hPa 0,0 l/m 0,1 km/h (0 Bft) NO 46 0 min 0,000 mm 0,0 UV-I 0 W/m 7,3 C 11,0 C 4,8 km/h (1 Bft)
10.10.2015 07:10 10,9 C 78 % 1019,3 hPa 0,0 l/m 0,4 km/h (0 Bft) O-NO 67 0 min 0,000 mm 0,0 UV-I 0 W/m 7,2 C 10,9 C 4,8 km/h (1 Bft)
10.10.2015 07:15 10,9 C 78 % 1019,3 hPa 0,0 l/m 0,0 km/h (0 Bft) O-NO 67 0 min 0,000 mm 0,0 UV-I 0 W/m 7,2 C 10,9 C 0,0 km/h (0 Bft)
10.10.2015 07:20 10,9 C 78 % 1019,4 hPa 0,0 l/m 0,0 km/h (0 Bft) O-NO 61 0 min 0,000 mm 0,0 UV-I 0 W/m 7,2 C 10,9 C 0,0 km/h (0 Bft)
10.10.2015 07:25 10,9 C 78 % 1019,4 hPa 0,0 l/m 0,0 km/h (0 Bft) O-NO 59 0 min 0,000 mm 0,0 UV-I 0 W/m 7,2 C 10,9 C 1,6 km/h (1 Bft)
10.10.2015 07:30 10,9 C 78 % 1019,4 hPa 0,0 l/m 0,0 km/h (0 Bft) O-NO 65 0 min 0,000 mm 0,0 UV-I 0 W/m 7,2 C 10,9 C 0,0 km/h (0 Bft)
10.10.2015 07:35 10,9 C 78 % 1019,4 hPa 0,0 l/m 0,0 km/h (0 Bft) O-NO 65 0 min 0,000 mm 0,0 UV-I 0 W/m 7,2 C 10,9 C 0,0 km/h (0 Bft)
10.10.2015 07:40 10,9 C 78 % 1019,3 hPa 0,0 l/m 0,0 km/h (0 Bft) O-NO 65 0 min 0,000 mm 0,0 UV-I 0 W/m 7,2 C 10,9 C 0,0 km/h (0 Bft)
10.10.2015 07:45 10,9 C 78 % 1019,3 hPa 0,0 l/m 0,0 km/h (0 Bft) O-NO 65 0 min 0,000 mm 0,0 UV-I 0 W/m 7,2 C 10,9 C 0,0 km/h (0 Bft)
10.10.2015 07:50 10,9 C 78 % 1019,4 hPa 0,0 l/m 0,1 km/h (0 Bft) O-NO 65 0 min 0,000 mm 0,0 UV-I 0 W/m 7,2 C 10,9 C 3,2 km/h (1 Bft)
10.10.2015 07:55 10,8 C 78 % 1019,3 hPa 0,0 l/m 0,0 km/h (0 Bft) O-NO 65 0 min 0,000 mm 0,0 UV-I 0 W/m 7,1 C 10,8 C 0,0 km/h (0 Bft)
10.10.2015 08:00 10,8 C 78 % 1019,3 hPa 0,0 l/m 0,9 km/h (0 Bft) O-NO 61 0 min 0,000 mm 0,0 UV-I 0 W/m 7,1 C 10,8 C 6,4 km/h (2 Bft)
10.10.2015 08:05 10,8 C 78 % 1019,3 hPa 0,0 l/m 0,1 km/h (0 Bft) O-NO 64 0 min 0,000 mm 0,0 UV-I 2 W/m 7,1 C 10,8 C 4,8 km/h (1 Bft)
10.10.2015 08:10 10,8 C 78 % 1019,4 hPa 0,0 l/m 0,7 km/h (0 Bft) NO 51 0 min 0,000 mm 0,0 UV-I 7 W/m 7,1 C 10,8 C 8,0 km/h (2 Bft)
10.10.2015 08:15 10,7 C 78 % 1019,3 hPa 0,0 l/m 2,2 km/h (1 Bft) O-NO 67 0 min 0,000 mm 0,0 UV-I 8 W/m 7,0 C 10,7 C 12,9 km/h (3 Bft)
10.10.2015 08:20 10,8 C 78 % 1019,3 hPa 0,0 l/m 1,2 km/h (1 Bft) NO 40 0 min 0,000 mm 0,0 UV-I 5 W/m 7,1 C 10,8 C 12,9 km/h (3 Bft)
10.10.2015 08:25 10,8 C 78 % 1019,4 hPa 0,0 l/m 1,1 km/h (1 Bft) O-NO 61 0 min 0,000 mm 0,0 UV-I 6 W/m 7,1 C 10,8 C 8,0 km/h (2 Bft)
10.10.2015 08:30 10,8 C 78 % 1019,4 hPa 0,0 l/m 0,0 km/h (0 Bft) O-NO 63 0 min 0,000 mm 0,0 UV-I 10 W/m 7,1 C 10,8 C 0,0 km/h (0 Bft)
10.10.2015 08:35 10,8 C 78 % 1019,4 hPa 0,0 l/m 0,3 km/h (0 Bft) O-NO 76 0 min 0,000 mm 0,0 UV-I 12 W/m 7,1 C 10,8 C 4,8 km/h (1 Bft)
10.10.2015 08:40 10,8 C 78 % 1019,5 hPa 0,0 l/m 1,4 km/h (1 Bft) NO 51 0 min 0,000 mm 0,0 UV-I 13 W/m 7,1 C 10,8 C 8,0 km/h (2 Bft)
10.10.2015 08:45 10,7 C 78 % 1019,5 hPa 0,0 l/m 3,4 km/h (1 Bft) NO 52 0 min 0,000 mm 0,0 UV-I 18 W/m 7,0 C 10,7 C 11,3 km/h (2 Bft)
10.10.2015 08:50 10,7 C 78 % 1019,5 hPa 0,0 l/m 1,2 km/h (1 Bft) O-NO 57 0 min 0,000 mm 0,0 UV-I 13 W/m 7,0 C 10,7 C 11,3 km/h (2 Bft)
10.10.2015 08:55 10,7 C 78 % 1019,4 hPa 0,0 l/m 0,3 km/h (0 Bft) N-NO 24 0 min 0,000 mm 0,0 UV-I 14 W/m 7,0 C 10,7 C 3,2 km/h (1 Bft)
10.10.2015 09:00 10,7 C 78 % 1019,4 hPa 0,0 l/m 0,5 km/h (0 Bft) N-NO 31 0 min 0,000 mm 0,0 UV-I 28 W/m 7,0 C 10,7 C 6,4 km/h (2 Bft)
10.10.2015 09:05 10,7 C 79 % 1019,4 hPa 0,0 l/m 1,1 km/h (1 Bft) O 82 0 min 0,000 mm 0,0 UV-I 26 W/m 7,2 C 10,7 C 6,4 km/h (2 Bft)
10.10.2015 09:10 10,7 C 78 % 1019,4 hPa 0,0 l/m 3,0 km/h (1 Bft) O 94 0 min 0,000 mm 0,0 UV-I 15 W/m 7,0 C 10,7 C 14,5 km/h (3 Bft)
10.10.2015 09:15 10,6 C 78 % 1019,4 hPa 0,0 l/m 4,2 km/h (1 Bft) O-NO 58 0 min 0,000 mm 0,0 UV-I 11 W/m 6,9 C 10,6 C 17,7 km/h (3 Bft)
10.10.2015 09:20 10,4 C 78 % 1019,4 hPa 0,0 l/m 6,1 km/h (2 Bft) O-NO 60 0 min 0,000 mm 0,0 UV-I 16 W/m 6,7 C 10,4 C 19,3 km/h (3 Bft)
10.10.2015 09:25 10,4 C 78 % 1019,4 hPa 0,0 l/m 5,2 km/h (1 Bft) N 360 0 min 0,000 mm 0,0 UV-I 22 W/m 6,7 C 10,4 C 16,1 km/h (3 Bft)
10.10.2015 09:30 10,3 C 78 % 1019,5 hPa 0,0 l/m 3,4 km/h (1 Bft) NO 55 0 min 0,000 mm 0,0 UV-I 16 W/m 6,6 C 10,3 C 19,3 km/h (3 Bft)
10.10.2015 09:35 10,3 C 78 % 1019,5 hPa 0,0 l/m 6,2 km/h (2 Bft) NO 36 0 min 0,000 mm 0,0 UV-I 21 W/m 6,6 C 10,3 C 20,9 km/h (4 Bft)
10.10.2015 09:40 10,3 C 78 % 1019,5 hPa 0,0 l/m 2,2 km/h (1 Bft) O-NO 59 0 min 0,000 mm 0,0 UV-I 32 W/m 6,6 C 10,3 C 16,1 km/h (3 Bft)
10.10.2015 09:45 10,3 C 78 % 1019,5 hPa 0,0 l/m 4,0 km/h (1 Bft) O-NO 65 0 min 0,000 mm 0,0 UV-I 38 W/m 6,6 C 10,3 C 19,3 km/h (3 Bft)
10.10.2015 09:50 10,3 C 78 % 1019,5 hPa 0,0 l/m 4,7 km/h (1 Bft) O-NO 61 0 min 0,000 mm 0,0 UV-I 40 W/m 6,6 C 10,3 C 14,5 km/h (3 Bft)
10.10.2015 09:55 10,3 C 78 % 1019,5 hPa 0,0 l/m 2,9 km/h (1 Bft) NO 53 0 min 0,000 mm 0,0 UV-I 38 W/m 6,6 C 10,3 C 16,1 km/h (3 Bft)
10.10.2015 10:00 10,3 C 78 % 1019,5 hPa 0,0 l/m 2,7 km/h (1 Bft) NO 51 0 min 0,026 mm 0,0 UV-I 54 W/m 6,6 C 10,3 C 16,1 km/h (3 Bft)
10.10.2015 10:05 10,3 C 77 % 1019,4 hPa 0,0 l/m 2,6 km/h (1 Bft) NO 51 0 min 0,000 mm 0,1 UV-I 78 W/m 6,4 C 10,3 C 17,7 km/h (3 Bft)
10.10.2015 10:10 10,4 C 78 % 1019,4 hPa 0,0 l/m 2,2 km/h (1 Bft) NO 51 0 min 0,000 mm 0,4 UV-I 129 W/m 6,7 C 10,4 C 16,1 km/h (3 Bft)
10.10.2015 10:15 10,8 C 77 % 1019,4 hPa 0,0 l/m 2,6 km/h (1 Bft) O 80 5 min 0,000 mm 0,6 UV-I 281 W/m 6,9 C 10,8 C 11,3 km/h (2 Bft)
10.10.2015 10:20 11,1 C 77 % 1019,3 hPa 0,0 l/m 1,5 km/h (1 Bft) O-NO 63 5 min 0,000 mm 0,8 UV-I 282 W/m 7,2 C 11,1 C 8,0 km/h (2 Bft)
10.10.2015 10:25 11,0 C 78 % 1019,3 hPa 0,0 l/m 0,8 km/h (0 Bft) NO 38 0 min 0,000 mm 0,8 UV-I 96 W/m 7,3 C 11,0 C 4,8 km/h (1 Bft)
10.10.2015 10:30 11,1 C 78 % 1019,4 hPa 0,0 l/m 0,5 km/h (0 Bft) O-NO 69 0 min 0,000 mm 0,8 UV-I 127 W/m 7,4 C 11,1 C 3,2 km/h (1 Bft)
10.10.2015 10:35 11,0 C 78 % 1019,4 hPa 0,0 l/m 0,8 km/h (0 Bft) O-NO 57 0 min 0,000 mm 1,0 UV-I 154 W/m 7,3 C 11,0 C 8,0 km/h (2 Bft)
10.10.2015 10:40 11,2 C 78 % 1019,5 hPa 0,0 l/m 0,8 km/h (0 Bft) O-NO 61 5 min 0,000 mm 1,1 UV-I 360 W/m 7,5 C 11,2 C 6,4 km/h (2 Bft)
10.10.2015 10:45 11,3 C 78 % 1019,4 hPa 0,0 l/m 3,3 km/h (1 Bft) O-NO 68 5 min 0,000 mm 1,1 UV-I 370 W/m 7,6 C 11,3 C 11,3 km/h (2 Bft)
10.10.2015 10:50 11,6 C 78 % 1019,4 hPa 0,0 l/m 1,6 km/h (1 Bft) NO 47 5 min 0,000 mm 1,3 UV-I 374 W/m 7,9 C 11,6 C 12,9 km/h (3 Bft)
10.10.2015 10:55 11,6 C 78 % 1019,4 hPa 0,0 l/m 2,3 km/h (1 Bft) NO 42 0 min 0,000 mm 1,2 UV-I 194 W/m 7,9 C 11,6 C 14,5 km/h (3 Bft)
10.10.2015 11:00 11,8 C 78 % 1019,3 hPa 0,0 l/m 0,9 km/h (0 Bft) NO 38 5 min 0,000 mm 1,3 UV-I 345 W/m 8,1 C 11,8 C 4,8 km/h (1 Bft)
10.10.2015 11:05 12,1 C 77 % 1019,3 hPa 0,0 l/m 1,4 km/h (1 Bft) NO 44 5 min 0,127 mm 1,4 UV-I 403 W/m 8,2 C 12,1 C 6,4 km/h (2 Bft)
10.10.2015 11:10 12,1 C 76 % 1019,3 hPa 0,0 l/m 4,7 km/h (1 Bft) NO 45 5 min 0,000 mm 1,4 UV-I 413 W/m 8,0 C 12,1 C 20,9 km/h (4 Bft)
10.10.2015 11:15 12,2 C 75 % 1019,2 hPa 0,0 l/m 3,8 km/h (1 Bft) O-NO 62 5 min 0,000 mm 1,5 UV-I 420 W/m 7,9 C 12,2 C 14,5 km/h (3 Bft)
10.10.2015 11:20 12,3 C 76 % 1019,1 hPa 0,0 l/m 3,0 km/h (1 Bft) NO 38 5 min 0,000 mm 1,5 UV-I 435 W/m 8,2 C 12,3 C 17,7 km/h (3 Bft)
10.10.2015 11:25 12,6 C 77 % 1019,1 hPa 0,0 l/m 0,5 km/h (0 Bft) O-NO 67 5 min 0,000 mm 1,6 UV-I 442 W/m 8,7 C 12,6 C 4,8 km/h (1 Bft)
10.10.2015 11:30 12,9 C 75 % 1019,1 hPa 0,0 l/m 0,9 km/h (0 Bft) O-NO 65 5 min 0,000 mm 1,6 UV-I 443 W/m 8,6 C 12,9 C 6,4 km/h (2 Bft)
10.10.2015 11:35 13,1 C 74 % 1019,1 hPa 0,0 l/m 1,4 km/h (1 Bft) O-NO 59 5 min 0,000 mm 1,6 UV-I 449 W/m 8,6 C 13,1 C 8,0 km/h (2 Bft)
10.10.2015 11:40 13,0 C 74 % 1019,0 hPa 0,0 l/m 1,1 km/h (1 Bft) W-SW 257 5 min 0,000 mm 1,7 UV-I 450 W/m 8,5 C 13,0 C 9,7 km/h (2 Bft)
10.10.2015 11:45 13,3 C 74 % 1019,0 hPa 0,0 l/m 0,0 km/h (0 Bft) N 360 5 min 0,000 mm 1,7 UV-I 455 W/m 8,8 C 13,3 C 0,0 km/h (0 Bft)
10.10.2015 11:50 13,8 C 73 % 1019,0 hPa 0,0 l/m 0,0 km/h (0 Bft) O-NO 75 5 min 0,000 mm 1,7 UV-I 469 W/m 9,0 C 13,8 C 0,0 km/h (0 Bft)
10.10.2015 11:55 13,7 C 70 % 1018,9 hPa 0,0 l/m 3,0 km/h (1 Bft) NO 50 5 min 0,000 mm 1,8 UV-I 465 W/m 8,3 C 13,7 C 16,1 km/h (3 Bft)
10.10.2015 12:00 13,7 C 71 % 1018,8 hPa 0,0 l/m 0,6 km/h (0 Bft) NO 36 5 min 0,000 mm 1,8 UV-I 475 W/m 8,5 C 13,7 C 8,0 km/h (2 Bft)
10.10.2015 12:05 13,8 C 70 % 1018,8 hPa 0,0 l/m 0,1 km/h (0 Bft) N-NW 346 5 min 0,228 mm 1,9 UV-I 482 W/m 8,4 C 13,8 C 1,6 km/h (1 Bft)
10.10.2015 12:10 13,7 C 67 % 1018,8 hPa 0,0 l/m 3,6 km/h (1 Bft) O-NO 74 5 min 0,000 mm 1,9 UV-I 485 W/m 7,7 C 13,7 C 14,5 km/h (3 Bft)
10.10.2015 12:15 13,4 C 67 % 1018,7 hPa 0,0 l/m 5,3 km/h (1 Bft) O-NO 71 5 min 0,000 mm 1,9 UV-I 484 W/m 7,4 C 13,4 C 17,7 km/h (3 Bft)
10.10.2015 12:20 13,3 C 71 % 1018,7 hPa 0,0 l/m 4,3 km/h (1 Bft) N-NO 12 5 min 0,000 mm 2,0 UV-I 492 W/m 8,2 C 13,3 C 20,9 km/h (4 Bft)
10.10.2015 12:25 13,8 C 71 % 1018,6 hPa 0,0 l/m 0,2 km/h (0 Bft) N 9 5 min 0,000 mm 2,0 UV-I 501 W/m 8,6 C 13,8 C 3,2 km/h (1 Bft)
10.10.2015 12:30 14,3 C 69 % 1018,6 hPa 0,0 l/m 0,4 km/h (0 Bft) O-NO 62 5 min 0,000 mm 2,0 UV-I 502 W/m 8,7 C 14,3 C 3,2 km/h (1 Bft)
10.10.2015 12:35 14,4 C 67 % 1018,5 hPa 0,0 l/m 1,4 km/h (1 Bft) NO 38 5 min 0,000 mm 2,0 UV-I 497 W/m 8,4 C 14,4 C 14,5 km/h (3 Bft)
10.10.2015 12:40 14,6 C 66 % 1018,5 hPa 0,0 l/m 0,5 km/h (0 Bft) O 84 5 min 0,000 mm 2,0 UV-I 501 W/m 8,3 C 14,6 C 3,2 km/h (1 Bft)
10.10.2015 12:45 14,7 C 64 % 1018,4 hPa 0,0 l/m 0,7 km/h (0 Bft) NO 53 5 min 0,000 mm 2,1 UV-I 510 W/m 8,0 C 14,7 C 4,8 km/h (1 Bft)
10.10.2015 12:50 14,7 C 63 % 1018,4 hPa 0,0 l/m 1,0 km/h (0 Bft) O-NO 61 5 min 0,000 mm 2,1 UV-I 520 W/m 7,7 C 14,7 C 8,0 km/h (2 Bft)
10.10.2015 12:55 14,4 C 64 % 1018,5 hPa 0,0 l/m 3,1 km/h (1 Bft) O 86 5 min 0,000 mm 2,1 UV-I 520 W/m 7,7 C 14,4 C 16,1 km/h (3 Bft)
10.10.2015 13:00 14,3 C 66 % 1018,3 hPa 0,0 l/m 1,3 km/h (1 Bft) NO 56 5 min 0,000 mm 2,1 UV-I 520 W/m 8,0 C 14,3 C 16,1 km/h (3 Bft)
10.10.2015 13:05 14,8 C 63 % 1018,3 hPa 0,0 l/m 0,3 km/h (0 Bft) O-NO 61 5 min 0,254 mm 2,1 UV-I 526 W/m 7,8 C 14,8 C 3,2 km/h (1 Bft)
10.10.2015 13:10 14,6 C 61 % 1018,3 hPa 0,0 l/m 1,4 km/h (1 Bft) NO 56 5 min 0,000 mm 2,2 UV-I 529 W/m 7,2 C 14,6 C 4,8 km/h (1 Bft)
10.10.2015 13:15 14,6 C 62 % 1018,2 hPa 0,0 l/m 1,8 km/h (1 Bft) NO 42 5 min 0,000 mm 2,1 UV-I 523 W/m 7,4 C 14,6 C 14,5 km/h (3 Bft)
10.10.2015 13:20 14,4 C 63 % 1018,1 hPa 0,0 l/m 4,6 km/h (1 Bft) O-NO 63 5 min 0,000 mm 2,1 UV-I 525 W/m 7,4 C 14,4 C 16,1 km/h (3 Bft)
10.10.2015 13:25 14,4 C 61 % 1018,0 hPa 0,0 l/m 4,5 km/h (1 Bft) N-NO 20 5 min 0,000 mm 2,1 UV-I 524 W/m 7,0 C 14,4 C 17,7 km/h (3 Bft)
10.10.2015 13:30 14,2 C 65 % 1018,0 hPa 0,0 l/m 3,0 km/h (1 Bft) O-NO 60 5 min 0,000 mm 2,1 UV-I 523 W/m 7,7 C 14,2 C 16,1 km/h (3 Bft)
10.10.2015 13:35 14,3 C 67 % 1018,0 hPa 0,0 l/m 0,4 km/h (0 Bft) O-NO 71 5 min 0,000 mm 2,1 UV-I 524 W/m 8,3 C 14,3 C 6,4 km/h (2 Bft)
10.10.2015 13:40 14,6 C 62 % 1018,0 hPa 0,0 l/m 2,5 km/h (1 Bft) NO 42 5 min 0,000 mm 2,1 UV-I 528 W/m 7,4 C 14,6 C 17,7 km/h (3 Bft)
10.10.2015 13:45 14,6 C 61 % 1018,0 hPa 0,0 l/m 2,6 km/h (1 Bft) NO 38 5 min 0,000 mm 2,1 UV-I 526 W/m 7,2 C 14,6 C 12,9 km/h (3 Bft)
10.10.2015 13:50 14,4 C 62 % 1017,9 hPa 0,0 l/m 3,6 km/h (1 Bft) O-NO 68 5 min 0,000 mm 2,1 UV-I 523 W/m 7,2 C 14,4 C 17,7 km/h (3 Bft)
10.10.2015 13:55 14,4 C 58 % 1017,8 hPa 0,0 l/m 4,6 km/h (1 Bft) NO 40 5 min 0,000 mm 2,1 UV-I 527 W/m 6,2 C 14,4 C 16,1 km/h (3 Bft)
10.10.2015 14:00 14,4 C 61 % 1017,8 hPa 0,0 l/m 0,7 km/h (0 Bft) N-NW 340 5 min 0,000 mm 2,1 UV-I 523 W/m 7,0 C 14,4 C 6,4 km/h (2 Bft)
10.10.2015 14:05 14,4 C 61 % 1017,7 hPa 0,0 l/m 7,2 km/h (2 Bft) O 94 5 min 0,280 mm 2,0 UV-I 515 W/m 7,0 C 13,9 C 20,9 km/h (4 Bft)
10.10.2015 14:10 14,0 C 61 % 1017,7 hPa 0,0 l/m 10,3 km/h (2 Bft) NW 319 5 min 0,000 mm 2,0 UV-I 516 W/m 6,6 C 11,9 C 24,1 km/h (4 Bft)
10.10.2015 14:15 14,0 C 61 % 1017,7 hPa 0,0 l/m 6,1 km/h (2 Bft) NO 55 5 min 0,000 mm 2,0 UV-I 510 W/m 6,6 C 14,0 C 17,7 km/h (3 Bft)
10.10.2015 14:20 14,1 C 65 % 1017,7 hPa 0,0 l/m 3,1 km/h (1 Bft) O 86 5 min 0,000 mm 1,9 UV-I 503 W/m 7,6 C 14,1 C 17,7 km/h (3 Bft)
10.10.2015 14:25 14,5 C 62 % 1017,7 hPa 0,0 l/m 1,4 km/h (1 Bft) O-NO 78 5 min 0,000 mm 1,9 UV-I 500 W/m 7,3 C 14,5 C 16,1 km/h (3 Bft)
10.10.2015 14:30 14,7 C 62 % 1017,8 hPa 0,0 l/m 1,3 km/h (1 Bft) O-NO 67 5 min 0,000 mm 1,8 UV-I 496 W/m 7,5 C 14,7 C 8,0 km/h (2 Bft)
10.10.2015 14:35 14,7 C 60 % 1017,7 hPa 0,0 l/m 3,1 km/h (1 Bft) O 98 5 min 0,000 mm 1,8 UV-I 484 W/m 7,0 C 14,7 C 12,9 km/h (3 Bft)
10.10.2015 14:40 14,8 C 58 % 1017,7 hPa 0,0 l/m 3,5 km/h (1 Bft) O-NO 72 5 min 0,000 mm 1,8 UV-I 477 W/m 6,6 C 14,8 C 17,7 km/h (3 Bft)
10.10.2015 14:45 14,6 C 64 % 1017,6 hPa 0,0 l/m 1,2 km/h (1 Bft) NO 35 5 min 0,000 mm 1,7 UV-I 475 W/m 7,9 C 14,6 C 17,7 km/h (3 Bft)
10.10.2015 14:50 14,9 C 61 % 1017,7 hPa 0,0 l/m 0,1 km/h (0 Bft) O 94 5 min 0,000 mm 1,6 UV-I 463 W/m 7,4 C 14,9 C 3,2 km/h (1 Bft)
10.10.2015 14:55 15,1 C 60 % 1017,7 hPa 0,0 l/m 0,8 km/h (0 Bft) N 5 5 min 0,000 mm 1,6 UV-I 459 W/m 7,4 C 15,1 C 12,9 km/h (3 Bft)
10.10.2015 15:00 15,3 C 59 % 1017,5 hPa 0,0 l/m 0,9 km/h (0 Bft) O-NO 64 5 min 0,000 mm 1,6 UV-I 455 W/m 7,3 C 15,3 C 9,7 km/h (2 Bft)
10.10.2015 15:05 15,1 C 58 % 1017,5 hPa 0,0 l/m 2,4 km/h (1 Bft) N-NO 15 5 min 0,279 mm 1,5 UV-I 451 W/m 6,9 C 15,1 C 17,7 km/h (3 Bft)
10.10.2015 15:10 14,9 C 56 % 1017,5 hPa 0,0 l/m 2,5 km/h (1 Bft) NO 49 5 min 0,000 mm 1,5 UV-I 445 W/m 6,2 C 14,9 C 16,1 km/h (3 Bft)
10.10.2015 15:15 14,7 C 57 % 1017,5 hPa 0,0 l/m 4,2 km/h (1 Bft) NO 53 5 min 0,000 mm 1,5 UV-I 440 W/m 6,3 C 14,7 C 20,9 km/h (4 Bft)
10.10.2015 15:20 14,4 C 57 % 1017,4 hPa 0,0 l/m 6,6 km/h (2 Bft) O-NO 66 5 min 0,000 mm 1,4 UV-I 432 W/m 6,0 C 14,3 C 17,7 km/h (3 Bft)
10.10.2015 15:25 14,2 C 60 % 1017,4 hPa 0,0 l/m 4,1 km/h (1 Bft) O-NO 61 5 min 0,000 mm 1,4 UV-I 429 W/m 6,5 C 14,2 C 22,5 km/h (4 Bft)
10.10.2015 15:30 14,2 C 59 % 1017,4 hPa 0,0 l/m 5,7 km/h (1 Bft) NO 55 5 min 0,000 mm 1,3 UV-I 425 W/m 6,3 C 14,2 C 19,3 km/h (3 Bft)
10.10.2015 15:35 14,1 C 61 % 1017,5 hPa 0,0 l/m 6,6 km/h (2 Bft) O 79 5 min 0,000 mm 1,3 UV-I 412 W/m 6,7 C 14,0 C 17,7 km/h (3 Bft)
10.10.2015 15:40 14,2 C 61 % 1017,4 hPa 0,0 l/m 1,3 km/h (1 Bft) N-NO 23 5 min 0,000 mm 1,2 UV-I 398 W/m 6,8 C 14,2 C 11,3 km/h (2 Bft)
10.10.2015 15:45 14,3 C 62 % 1017,4 hPa 0,0 l/m 2,2 km/h (1 Bft) NO 49 5 min 0,000 mm 1,2 UV-I 396 W/m 7,1 C 14,3 C 12,9 km/h (3 Bft)
10.10.2015 15:50 14,2 C 61 % 1017,3 hPa 0,0 l/m 3,8 km/h (1 Bft) NO 49 5 min 0,000 mm 1,1 UV-I 386 W/m 6,8 C 14,2 C 16,1 km/h (3 Bft)
10.10.2015 15:55 14,3 C 60 % 1017,4 hPa 0,0 l/m 0,2 km/h (0 Bft) NO 53 5 min 0,000 mm 1,1 UV-I 375 W/m 6,6 C 14,3 C 3,2 km/h (1 Bft)
10.10.2015 16:00 14,4 C 62 % 1017,4 hPa 0,0 l/m 0,2 km/h (0 Bft) NO 54 5 min 0,000 mm 1,0 UV-I 366 W/m 7,2 C 14,4 C 4,8 km/h (1 Bft)
10.10.2015 16:05 14,5 C 63 % 1017,3 hPa 0,0 l/m 2,0 km/h (1 Bft) O 83 5 min 0,229 mm 1,0 UV-I 355 W/m 7,5 C 14,5 C 12,9 km/h (3 Bft)
10.10.2015 16:10 14,5 C 62 % 1017,3 hPa 0,0 l/m 2,5 km/h (1 Bft) O-NO 60 5 min 0,000 mm 0,9 UV-I 346 W/m 7,3 C 14,5 C 12,9 km/h (3 Bft)
10.10.2015 16:15 14,6 C 62 % 1017,3 hPa 0,0 l/m 1,1 km/h (1 Bft) O-NO 60 5 min 0,000 mm 0,9 UV-I 334 W/m 7,4 C 14,6 C 12,9 km/h (3 Bft)
10.10.2015 16:20 14,7 C 61 % 1017,3 hPa 0,0 l/m 0,0 km/h (0 Bft) NO 53 5 min 0,000 mm 0,8 UV-I 320 W/m 7,3 C 14,7 C 0,0 km/h (0 Bft)
10.10.2015 16:25 14,7 C 60 % 1017,3 hPa 0,0 l/m 1,4 km/h (1 Bft) N-NO 15 5 min 0,000 mm 0,8 UV-I 312 W/m 7,0 C 14,7 C 14,5 km/h (3 Bft)
10.10.2015 16:30 14,5 C 60 % 1017,3 hPa 0,0 l/m 0,9 km/h (0 Bft) O 82 5 min 0,000 mm 0,8 UV-I 303 W/m 6,8 C 14,5 C 11,3 km/h (2 Bft)
10.10.2015 16:35 14,1 C 59 % 1017,3 hPa 0,0 l/m 4,5 km/h (1 Bft) O 92 5 min 0,000 mm 0,7 UV-I 293 W/m 6,2 C 14,1 C 14,5 km/h (3 Bft)
10.10.2015 16:40 13,5 C 61 % 1017,2 hPa 0,0 l/m 7,7 km/h (2 Bft) O-NO 75 5 min 0,000 mm 0,7 UV-I 283 W/m 6,1 C 12,7 C 16,1 km/h (3 Bft)
10.10.2015 16:45 13,2 C 63 % 1017,3 hPa 0,0 l/m 5,4 km/h (1 Bft) O-NO 65 5 min 0,000 mm 0,6 UV-I 269 W/m 6,3 C 13,2 C 16,1 km/h (3 Bft)
10.10.2015 16:50 13,2 C 63 % 1017,3 hPa 0,0 l/m 3,6 km/h (1 Bft) NO 51 5 min 0,000 mm 0,6 UV-I 254 W/m 6,3 C 13,2 C 16,1 km/h (3 Bft)
10.10.2015 16:55 13,0 C 64 % 1017,3 hPa 0,0 l/m 5,3 km/h (1 Bft) O-NO 65 5 min 0,000 mm 0,6 UV-I 240 W/m 6,4 C 13,0 C 16,1 km/h (3 Bft)
10.10.2015 17:00 12,9 C 64 % 1017,3 hPa 0,0 l/m 4,4 km/h (1 Bft) O-NO 63 5 min 0,000 mm 0,5 UV-I 232 W/m 6,3 C 12,9 C 14,5 km/h (3 Bft)
10.10.2015 17:05 12,8 C 65 % 1017,2 hPa 0,0 l/m 8,4 km/h (2 Bft) O-NO 69 5 min 0,178 mm 0,5 UV-I 222 W/m 6,4 C 11,6 C 22,5 km/h (4 Bft)
10.10.2015 17:10 12,8 C 65 % 1017,2 hPa 0,0 l/m 3,3 km/h (1 Bft) O-NO 70 5 min 0,000 mm 0,5 UV-I 205 W/m 6,4 C 12,8 C 14,5 km/h (3 Bft)
10.10.2015 17:15 12,6 C 65 % 1017,2 hPa 0,0 l/m 8,6 km/h (2 Bft) O 89 5 min 0,000 mm 0,1 UV-I 193 W/m 6,2 C 11,2 C 17,7 km/h (3 Bft)
10.10.2015 17:20 12,3 C 63 % 1017,2 hPa 0,0 l/m 9,0 km/h (2 Bft) NO 51 5 min 0,000 mm 0,0 UV-I 179 W/m 5,5 C 10,7 C 20,9 km/h (4 Bft)
10.10.2015 17:25 12,1 C 65 % 1017,4 hPa 0,0 l/m 5,0 km/h (1 Bft) O-NO 75 5 min 0,000 mm 0,0 UV-I 167 W/m 5,7 C 12,1 C 16,1 km/h (3 Bft)
10.10.2015 17:30 12,1 C 64 % 1017,3 hPa 0,0 l/m 2,1 km/h (1 Bft) O 86 5 min 0,000 mm 0,0 UV-I 150 W/m 5,5 C 12,1 C 12,9 km/h (3 Bft)
10.10.2015 17:35 11,9 C 64 % 1017,2 hPa 0,0 l/m 10,7 km/h (2 Bft) O-NO 67 5 min 0,000 mm 0,0 UV-I 137 W/m 5,3 C 9,3 C 20,9 km/h (4 Bft)
10.10.2015 17:40 11,8 C 65 % 1017,2 hPa 0,0 l/m 1,8 km/h (1 Bft) O 86 5 min 0,000 mm 0,0 UV-I 121 W/m 5,4 C 11,8 C 12,9 km/h (3 Bft)
10.10.2015 17:45 11,8 C 65 % 1017,3 hPa 0,0 l/m 2,0 km/h (1 Bft) NO 41 5 min 0,000 mm 0,0 UV-I 109 W/m 5,4 C 11,8 C 14,5 km/h (3 Bft)
10.10.2015 17:50 11,6 C 66 % 1017,3 hPa 0,0 l/m 7,6 km/h (2 Bft) NO 42 5 min 0,000 mm 0,0 UV-I 94 W/m 5,5 C 10,8 C 17,7 km/h (3 Bft)
10.10.2015 17:55 11,3 C 67 % 1017,3 hPa 0,0 l/m 11,4 km/h (2 Bft) O-NO 71 5 min 0,000 mm 0,0 UV-I 81 W/m 5,4 C 8,3 C 20,9 km/h (4 Bft)
10.10.2015 18:00 11,2 C 69 % 1017,3 hPa 0,0 l/m 2,3 km/h (1 Bft) O-NO 58 5 min 0,000 mm 0,0 UV-I 71 W/m 5,7 C 11,2 C 20,9 km/h (4 Bft)
10.10.2015 18:05 11,1 C 69 % 1017,3 hPa 0,0 l/m 6,3 km/h (2 Bft) O-NO 58 5 min 0,101 mm 0,0 UV-I 59 W/m 5,6 C 11,1 C 12,9 km/h (3 Bft)
10.10.2015 18:10 11,1 C 69 % 1017,3 hPa 0,0 l/m 2,8 km/h (1 Bft) N-NO 22 5 min 0,000 mm 0,0 UV-I 49 W/m 5,6 C 11,1 C 16,1 km/h (3 Bft)
10.10.2015 18:15 10,9 C 71 % 1017,3 hPa 0,0 l/m 3,0 km/h (1 Bft) N-NO 12 5 min 0,000 mm 0,0 UV-I 40 W/m 5,9 C 10,9 C 14,5 km/h (3 Bft)
10.10.2015 18:20 10,8 C 71 % 1017,3 hPa 0,0 l/m 1,5 km/h (1 Bft) NO 56 5 min 0,000 mm 0,0 UV-I 31 W/m 5,8 C 10,8 C 8,0 km/h (2 Bft)
10.10.2015 18:25 10,7 C 72 % 1017,4 hPa 0,0 l/m 0,0 km/h (0 Bft) NO 38 5 min 0,000 mm 0,0 UV-I 23 W/m 5,9 C 10,7 C 1,6 km/h (1 Bft)
10.10.2015 18:30 10,6 C 72 % 1017,3 hPa 0,0 l/m 0,6 km/h (0 Bft) N-NO 24 5 min 0,000 mm 0,0 UV-I 17 W/m 5,8 C 10,6 C 9,7 km/h (2 Bft)
10.10.2015 18:35 10,4 C 72 % 1017,4 hPa 0,0 l/m 0,9 km/h (0 Bft) N-NO 32 5 min 0,000 mm 0,0 UV-I 13 W/m 5,6 C 10,4 C 8,0 km/h (2 Bft)
10.10.2015 18:40 10,3 C 73 % 1017,4 hPa 0,0 l/m 0,5 km/h (0 Bft) NO 41 0 min 0,000 mm 0,0 UV-I 10 W/m 5,7 C 10,3 C 4,8 km/h (1 Bft)
10.10.2015 18:45 10,2 C 74 % 1017,4 hPa 0,0 l/m 0,0 km/h (0 Bft) N-NW 341 0 min 0,000 mm 0,0 UV-I 6 W/m 5,8 C 10,2 C 1,6 km/h (1 Bft)
10.10.2015 18:50 9,9 C 74 % 1017,4 hPa 0,0 l/m 0,9 km/h (0 Bft) NO 55 0 min 0,000 mm 0,0 UV-I 1 W/m 5,5 C 9,9 C 9,7 km/h (2 Bft)
10.10.2015 18:55 9,7 C 74 % 1017,4 hPa 0,0 l/m 1,3 km/h (1 Bft) NO 46 0 min 0,000 mm 0,0 UV-I 0 W/m 5,3 C 9,7 C 12,9 km/h (3 Bft)
10.10.2015 19:00 9,6 C 75 % 1017,5 hPa 0,0 l/m 2,1 km/h (1 Bft) N-NO 30 0 min 0,000 mm 0,0 UV-I 0 W/m 5,4 C 9,6 C 11,3 km/h (2 Bft)
10.10.2015 19:05 9,5 C 75 % 1017,6 hPa 0,0 l/m 0,1 km/h (0 Bft) NO 46 0 min 0,026 mm 0,0 UV-I 0 W/m 5,3 C 9,5 C 4,8 km/h (1 Bft)
10.10.2015 19:10 9,4 C 75 % 1017,7 hPa 0,0 l/m 0,0 km/h (0 Bft) NO 46 0 min 0,000 mm 0,0 UV-I 0 W/m 5,2 C 9,4 C 0,0 km/h (0 Bft)
10.10.2015 19:15 9,2 C 76 % 1017,7 hPa 0,0 l/m 0,1 km/h (0 Bft) NO 45 0 min 0,000 mm 0,0 UV-I 0 W/m 5,2 C 9,2 C 3,2 km/h (1 Bft)
10.10.2015 19:20 9,1 C 76 % 1017,7 hPa 0,0 l/m 0,0 km/h (0 Bft) NO 44 0 min 0,000 mm 0,0 UV-I 0 W/m 5,1 C 9,1 C 1,6 km/h (1 Bft)
10.10.2015 19:25 8,9 C 76 % 1017,7 hPa 0,0 l/m 0,0 km/h (0 Bft) NO 48 0 min 0,000 mm 0,0 UV-I 0 W/m 4,9 C 8,9 C 0,0 km/h (0 Bft)
10.10.2015 19:30 8,8 C 76 % 1017,7 hPa 0,0 l/m 0,1 km/h (0 Bft) NO 55 0 min 0,000 mm 0,0 UV-I 0 W/m 4,8 C 8,8 C 1,6 km/h (1 Bft)
10.10.2015 19:35 8,7 C 77 % 1017,7 hPa 0,0 l/m 0,0 km/h (0 Bft) NO 55 0 min 0,000 mm 0,0 UV-I 0 W/m 4,9 C 8,7 C 1,6 km/h (1 Bft)
10.10.2015 19:40 8,6 C 77 % 1017,8 hPa 0,0 l/m 0,4 km/h (0 Bft) O-NO 71 0 min 0,000 mm 0,0 UV-I 0 W/m 4,8 C 8,6 C 3,2 km/h (1 Bft)
10.10.2015 19:45 8,5 C 77 % 1017,8 hPa 0,0 l/m 0,5 km/h (0 Bft) O-NO 58 0 min 0,000 mm 0,0 UV-I 0 W/m 4,7 C 8,5 C 6,4 km/h (2 Bft)
10.10.2015 19:50 8,4 C 77 % 1017,9 hPa 0,0 l/m 2,3 km/h (1 Bft) O 94 0 min 0,000 mm 0,0 UV-I 0 W/m 4,6 C 8,4 C 11,3 km/h (2 Bft)
10.10.2015 19:55 8,4 C 77 % 1017,9 hPa 0,0 l/m 2,4 km/h (1 Bft) NO 36 0 min 0,000 mm 0,0 UV-I 0 W/m 4,6 C 8,4 C 12,9 km/h (3 Bft)
10.10.2015 20:00 8,4 C 77 % 1018,0 hPa 0,0 l/m 2,3 km/h (1 Bft) NO 48 0 min 0,000 mm 0,0 UV-I 0 W/m 4,6 C 8,4 C 11,3 km/h (2 Bft)
10.10.2015 20:05 8,4 C 77 % 1017,9 hPa 0,0 l/m 5,1 km/h (1 Bft) O-NO 63 0 min 0,025 mm 0,0 UV-I 0 W/m 4,6 C 8,4 C 14,5 km/h (3 Bft)
10.10.2015 20:10 8,4 C 77 % 1017,9 hPa 0,0 l/m 5,3 km/h (1 Bft) O 90 0 min 0,000 mm 0,0 UV-I 0 W/m 4,6 C 8,4 C 12,9 km/h (3 Bft)
10.10.2015 20:15 8,3 C 77 % 1017,9 hPa 0,0 l/m 6,0 km/h (2 Bft) O-NO 65 0 min 0,000 mm 0,0 UV-I 0 W/m 4,5 C 8,3 C 17,7 km/h (3 Bft)
10.10.2015 20:20 8,3 C 77 % 1017,9 hPa 0,0 l/m 5,9 km/h (2 Bft) O-NO 63 0 min 0,000 mm 0,0 UV-I 0 W/m 4,5 C 8,3 C 14,5 km/h (3 Bft)
10.10.2015 20:25 8,2 C 77 % 1018,0 hPa 0,0 l/m 3,8 km/h (1 Bft) O-NO 75 0 min 0,000 mm 0,0 UV-I 0 W/m 4,4 C 8,2 C 14,5 km/h (3 Bft)
10.10.2015 20:30 8,1 C 77 % 1018,0 hPa 0,0 l/m 3,2 km/h (1 Bft) O-NO 77 0 min 0,000 mm 0,0 UV-I 0 W/m 4,3 C 8,1 C 11,3 km/h (2 Bft)
10.10.2015 20:35 8,0 C 78 % 1018,0 hPa 0,0 l/m 1,2 km/h (1 Bft) O-NO 62 0 min 0,000 mm 0,0 UV-I 0 W/m 4,4 C 8,0 C 6,4 km/h (2 Bft)
10.10.2015 20:40 7,9 C 78 % 1017,9 hPa 0,0 l/m 3,6 km/h (1 Bft) NO 54 0 min 0,000 mm 0,0 UV-I 0 W/m 4,3 C 7,9 C 8,0 km/h (2 Bft)
10.10.2015 20:45 7,8 C 78 % 1017,9 hPa 0,0 l/m 3,5 km/h (1 Bft) O-NO 59 0 min 0,000 mm 0,0 UV-I 0 W/m 4,2 C 7,8 C 16,1 km/h (3 Bft)
10.10.2015 20:50 7,7 C 78 % 1017,9 hPa 0,0 l/m 3,0 km/h (1 Bft) O 94 0 min 0,000 mm 0,0 UV-I 0 W/m 4,1 C 7,7 C 12,9 km/h (3 Bft)
10.10.2015 20:55 7,7 C 78 % 1018,0 hPa 0,0 l/m 0,8 km/h (0 Bft) NO 38 0 min 0,000 mm 0,0 UV-I 0 W/m 4,1 C 7,7 C 8,0 km/h (2 Bft)
10.10.2015 21:00 7,7 C 78 % 1018,0 hPa 0,0 l/m 0,1 km/h (0 Bft) N-NO 24 0 min 0,000 mm 0,0 UV-I 0 W/m 4,1 C 7,7 C 3,2 km/h (1 Bft)
10.10.2015 21:05 7,6 C 78 % 1018,0 hPa 0,0 l/m 1,1 km/h (1 Bft) O-SO 119 0 min 0,025 mm 0,0 UV-I 0 W/m 4,0 C 7,6 C 12,9 km/h (3 Bft)
10.10.2015 21:10 7,5 C 78 % 1018,0 hPa 0,0 l/m 0,8 km/h (0 Bft) O-NO 60 0 min 0,000 mm 0,0 UV-I 0 W/m 3,9 C 7,5 C 4,8 km/h (1 Bft)
10.10.2015 21:15 7,4 C 78 % 1018,0 hPa 0,0 l/m 2,1 km/h (1 Bft) O-NO 71 0 min 0,000 mm 0,0 UV-I 0 W/m 3,8 C 7,4 C 8,0 km/h (2 Bft)
10.10.2015 21:20 7,3 C 78 % 1018,1 hPa 0,0 l/m 3,6 km/h (1 Bft) N-NO 19 0 min 0,000 mm 0,0 UV-I 0 W/m 3,7 C 7,3 C 11,3 km/h (2 Bft)
10.10.2015 21:25 7,3 C 78 % 1018,1 hPa 0,0 l/m 1,2 km/h (1 Bft) O-NO 66 0 min 0,000 mm 0,0 UV-I 0 W/m 3,7 C 7,3 C 11,3 km/h (2 Bft)
10.10.2015 21:30 7,2 C 78 % 1018,2 hPa 0,0 l/m 2,7 km/h (1 Bft) NO 46 0 min 0,000 mm 0,0 UV-I 0 W/m 3,6 C 7,2 C 14,5 km/h (3 Bft)
10.10.2015 21:35 7,2 C 78 % 1018,2 hPa 0,0 l/m 2,0 km/h (1 Bft) O-NO 58 0 min 0,000 mm 0,0 UV-I 0 W/m 3,6 C 7,2 C 9,7 km/h (2 Bft)
10.10.2015 21:40 7,2 C 78 % 1018,2 hPa 0,0 l/m 1,5 km/h (1 Bft) O-NO 71 0 min 0,000 mm 0,0 UV-I 0 W/m 3,6 C 7,2 C 8,0 km/h (2 Bft)
10.10.2015 21:45 7,1 C 78 % 1018,1 hPa 0,0 l/m 3,2 km/h (1 Bft) O-NO 59 0 min 0,000 mm 0,0 UV-I 0 W/m 3,5 C 7,1 C 14,5 km/h (3 Bft)
10.10.2015 21:50 7,1 C 78 % 1018,0 hPa 0,0 l/m 1,5 km/h (1 Bft) O-NO 61 0 min 0,000 mm 0,0 UV-I 0 W/m 3,5 C 7,1 C 14,5 km/h (3 Bft)
10.10.2015 21:55 7,1 C 78 % 1018,0 hPa 0,0 l/m 6,9 km/h (2 Bft) O-NO 77 0 min 0,000 mm 0,0 UV-I 0 W/m 3,5 C 6,7 C 16,1 km/h (3 Bft)
10.10.2015 22:00 7,1 C 78 % 1018,1 hPa 0,0 l/m 7,8 km/h (2 Bft) NO 48 0 min 0,000 mm 0,0 UV-I 0 W/m 3,5 C 6,0 C 17,7 km/h (3 Bft)
10.10.2015 22:05 7,2 C 78 % 1018,0 hPa 0,0 l/m 3,7 km/h (1 Bft) O-NO 59 0 min 0,026 mm 0,0 UV-I 0 W/m 3,6 C 7,2 C 11,3 km/h (2 Bft)
10.10.2015 22:10 7,1 C 78 % 1018,1 hPa 0,0 l/m 2,9 km/h (1 Bft) N 9 0 min 0,000 mm 0,0 UV-I 0 W/m 3,5 C 7,1 C 11,3 km/h (2 Bft)
10.10.2015 22:15 7,1 C 78 % 1018,1 hPa 0,0 l/m 2,5 km/h (1 Bft) NO 47 0 min 0,000 mm 0,0 UV-I 0 W/m 3,5 C 7,1 C 12,9 km/h (3 Bft)
10.10.2015 22:20 7,0 C 78 % 1018,1 hPa 0,0 l/m 4,0 km/h (1 Bft) O-NO 74 0 min 0,000 mm 0,0 UV-I 0 W/m 3,4 C 7,0 C 14,5 km/h (3 Bft)
10.10.2015 22:25 6,9 C 78 % 1018,0 hPa 0,0 l/m 3,7 km/h (1 Bft) O-NO 63 0 min 0,000 mm 0,0 UV-I 0 W/m 3,3 C 6,9 C 14,5 km/h (3 Bft)
10.10.2015 22:30 6,9 C 78 % 1018,0 hPa 0,0 l/m 4,2 km/h (1 Bft) N-NO 17 0 min 0,000 mm 0,0 UV-I 0 W/m 3,3 C 6,9 C 14,5 km/h (3 Bft)
10.10.2015 22:35 6,9 C 78 % 1017,9 hPa 0,0 l/m 3,9 km/h (1 Bft) O-NO 78 0 min 0,000 mm 0,0 UV-I 0 W/m 3,3 C 6,9 C 14,5 km/h (3 Bft)
10.10.2015 22:40 6,8 C 78 % 1017,9 hPa 0,0 l/m 5,0 km/h (1 Bft) N-NO 31 0 min 0,000 mm 0,0 UV-I 0 W/m 3,2 C 6,8 C 17,7 km/h (3 Bft)
10.10.2015 22:45 6,8 C 78 % 1017,8 hPa 0,0 l/m 4,5 km/h (1 Bft) O-NO 59 0 min 0,000 mm 0,0 UV-I 0 W/m 3,2 C 6,8 C 16,1 km/h (3 Bft)
10.10.2015 22:50 6,7 C 78 % 1017,9 hPa 0,0 l/m 2,1 km/h (1 Bft) O-NO 60 0 min 0,000 mm 0,0 UV-I 0 W/m 3,1 C 6,7 C 12,9 km/h (3 Bft)
10.10.2015 22:55 6,7 C 78 % 1017,9 hPa 0,0 l/m 2,9 km/h (1 Bft) NO 47 0 min 0,000 mm 0,0 UV-I 0 W/m 3,1 C 6,7 C 11,3 km/h (2 Bft)
10.10.2015 23:00 6,6 C 78 % 1017,9 hPa 0,0 l/m 5,7 km/h (1 Bft) NO 41 0 min 0,000 mm 0,0 UV-I 0 W/m 3,0 C 6,6 C 12,9 km/h (3 Bft)
10.10.2015 23:05 6,6 C 78 % 1018,0 hPa 0,0 l/m 5,6 km/h (1 Bft) O 90 0 min 0,025 mm 0,0 UV-I 0 W/m 3,0 C 6,6 C 14,5 km/h (3 Bft)
10.10.2015 23:10 6,6 C 78 % 1017,9 hPa 0,0 l/m 7,6 km/h (2 Bft) O-NO 74 0 min 0,000 mm 0,0 UV-I 0 W/m 3,0 C 5,6 C 16,1 km/h (3 Bft)
10.10.2015 23:15 6,7 C 78 % 1017,9 hPa 0,0 l/m 5,5 km/h (1 Bft) O-NO 63 0 min 0,000 mm 0,0 UV-I 0 W/m 3,1 C 6,7 C 12,9 km/h (3 Bft)
10.10.2015 23:20 6,7 C 78 % 1017,9 hPa 0,0 l/m 5,3 km/h (1 Bft) NO 52 0 min 0,000 mm 0,0 UV-I 0 W/m 3,1 C 6,7 C 16,1 km/h (3 Bft)
10.10.2015 23:25 6,7 C 77 % 1018,0 hPa 0,0 l/m 6,9 km/h (2 Bft) NO 54 0 min 0,000 mm 0,0 UV-I 0 W/m 3,0 C 6,3 C 19,3 km/h (3 Bft)
10.10.2015 23:30 6,8 C 77 % 1017,9 hPa 0,0 l/m 9,7 km/h (2 Bft) O-NO 60 0 min 0,000 mm 0,0 UV-I 0 W/m 3,1 C 4,3 C 22,5 km/h (4 Bft)
10.10.2015 23:35 6,7 C 77 % 1018,0 hPa 0,0 l/m 2,8 km/h (1 Bft) NO 42 0 min 0,000 mm 0,0 UV-I 0 W/m 3,0 C 6,7 C 12,9 km/h (3 Bft)
10.10.2015 23:40 6,6 C 77 % 1017,8 hPa 0,0 l/m 4,4 km/h (1 Bft) N-NO 32 0 min 0,000 mm 0,0 UV-I 0 W/m 2,9 C 6,6 C 14,5 km/h (3 Bft)
10.10.2015 23:45 6,5 C 77 % 1017,8 hPa 0,0 l/m 3,0 km/h (1 Bft) NO 53 0 min 0,000 mm 0,0 UV-I 0 W/m 2,8 C 6,5 C 12,9 km/h (3 Bft)
10.10.2015 23:50 6,4 C 77 % 1018,0 hPa 0,0 l/m 2,2 km/h (1 Bft) O-NO 65 0 min 0,000 mm 0,0 UV-I 0 W/m 2,7 C 6,4 C 11,3 km/h (2 Bft)
10.10.2015 23:55 6,3 C 77 % 1017,9 hPa 0,0 l/m 4,0 km/h (1 Bft) NO 42 0 min 0,000 mm 0,0 UV-I 0 W/m 2,6 C 6,3 C 14,5 km/h (3 Bft)
_ Min-Zeit 23:55 15:10 16:40 - 00:00 - - - - - - 23:55 23:30 00:00
Minimum _ 6,3 C 56 % 1017,2 hPa - 0,0 km/h (0 Bft) - - - - - - 2,6 C 4,3 C 0,0 km/h (0 Bft)
_ Max-Zeit 15:00 00:00 00:00 00:00 17:55 - - 10:15 14:05 13:10 13:10 11:50 15:00 14:10
Maximum _ 15,3 C 79 % 1020,0 hPa 0,0 l/m 11,4 km/h
O-NO (2 Bft)
- - 5 min 0,280 mm 2,2 UV-I 529 W/m 9,0 C 15,3 C 24,1 km/h
O-NO (4 Bft)
Durchschnitt _ 11,3 C 74 % 1018,7 hPa #0,0 l/m 2,0 km/h (1 Bft) O-NO - #8:05 h #1,981 mm 1,5 UV-I 286 W/m 6,7 C 11,2 C 8,8 km/h (2 Bft)